{"data":{"norad_id":57814,"epoch":"2026-05-25T01:36:44.938656Z","epoch_age_seconds":70023,"freshness":"FRESH","line1":"1 57814U 23138G   26145.06718679 -.00000286  00000+0 -85576-6 0  9998","line2":"2 57814  43.0007 163.3246 0001343 272.7247  87.3451 15.27587371150413","mean_motion":15.27587371,"eccentricity":0.0001343,"inclination_deg":43.0007,"raan_deg":163.3246,"arg_perigee_deg":272.7247,"mean_anomaly_deg":87.3451,"bstar":-8.5576e-7,"rev_number":15041,"period_min":94.266293852465,"perigee_km":482.10557037418,"apogee_km":483.94847903122,"semimajor_km":6861.1640247027,"source":"CELESTRAK","updated_at":"2026-05-25T13:38:18.409584Z"}}